BEIDOU 11 (C05)

Last updated on Mon Feb 13 2023 00:03:21 GMT+0000 (Coordinated Universal Time)

1 38091U 12008A 23043.55340120 .00000069 00000+0 00000+0 0 9997 2 38091 2.1149 71.6915 0013229 308.8027 19.7495 1.00270324 40237

Satellite not in orbit

BEIDOU 11 (C05)